Location: Unspecified
(34.4480°N, 0.0000°E)
Time: 10:42:45
(UTC+00:00)

N. Korean satellite - Visible Passes

Search period start: 18 November 2019 00:00
Search period end: 28 November 2019 00:00
Orbit: 456 x 506 km, 97.2° (Epoch: 17 November)

Date Brightness Start Highest point End Pass type
(mag) Time Alt. Az. Time Alt. Az. Time Alt. Az.
18 Nov 9.5 05:04:52 10° NE 05:07:37 20° E 05:10:20 10° SE visible
19 Nov 10.3 18:19:54 10° WSW 18:20:40 11° W 18:21:28 10° W visible
20 Nov 6.7 05:46:38 10° NNE 05:50:19 80° ESE 05:53:57 10° S visible
20 Nov 9.4 17:52:12 10° SSW 17:55:07 23° W 17:58:05 10° NW visible
21 Nov 8.5 05:21:33 10° NNE 05:24:54 33° E 05:28:12 10° SSE visible
21 Nov 7.6 17:26:08 10° S 17:29:40 52° W 17:33:16 10° NNW visible
22 Nov 9.9 04:57:09 10° NE 04:59:23 15° E 05:01:36 10° SE visible
23 Nov 6.7 06:03:53 10° N 06:07:29 55° WNW 06:11:00 10° SSW visible
23 Nov 10.0 18:10:30 10° SW 18:12:25 14° W 18:14:22 10° WNW visible
24 Nov 7.2 05:38:29 10° NNE 05:42:07 60° E 05:45:40 10° S visible
24 Nov 8.9 17:43:40 10° SSW 17:46:53 29° W 17:50:10 10° NW visible
25 Nov 9.0 05:13:34 10° NE 05:16:40 26° E 05:19:41 10° SSE visible
25 Nov 7.0 17:17:49 10° S 17:21:27 69° W 17:25:09 10° NNW visible
26 Nov 10.1 04:49:41 10° ENE 04:51:06 12° E 04:52:31 10° ESE visible
27 Nov 6.5 05:55:38 10° N 05:59:16 73° WNW 06:02:49 10° SSW visible
27 Nov 9.8 18:01:36 10° SW 18:04:08 18° W 18:06:42 10° NW visible
